FW1093 Weather Reports


time (UTC)temp
C
wind
direction
speed
KPH
gust
KPH
rain 1hr
cm
rain 24hr
cm
rain mn
cm
humidity
%
barometer
mb
20260831030328 21 219 0.0 1.6 0.03 0.03 0.03 94 1019.3
20260831025317 21 219 0.0 1.6 0.03 0.03 0.03 94 1019.3
20260831024336 21 73 0.0 3.2 0.03 0.03 0.03 95 1019.5
20260831023331 21 146 0.0 1.6 0.03 0.03 0.03 95 1019.6
20260831022323 21 185 0.0 0.0 0.00 0.00 0.00 95 1019.5
20260831021312 21 185 0.0 0.0 0.00 0.00 0.00 95 1019.5
20260831020334 21 185 0.0 0.0 0.00 0.00 0.00 95 1019.3
20260831015329 21 186 0.0 0.0 0.00 0.00 0.00 95 1019.3
20260831014322 21 186 0.0 1.6 0.00 0.00 0.00 95 1019.1
20260831013316 21 219 0.0 1.6 0.00 0.00 0.00 95 1019.0
20260831012317 21 223 0.0 0.0 0.00 0.00 0.00 94 1019.1
20260831011335 21 223 0.0 0.0 0.00 0.00 0.00 94 1019.0
20260831010329 21 223 0.0 0.0 0.00 0.00 0.00 94 1018.9
20260831005326 21 223 0.0 0.0 0.00 0.00 0.00 93 1019.0
20260831004345 21 223 0.0 0.0 0.00 0.00 0.00 93 1018.9
20260831003318 21 223 0.0 0.0 0.00 0.00 0.00 92 1018.8
20260831002314 21 223 0.0 0.0 0.00 0.00 0.00 92 1018.7
20260831001332 21 223 0.0 0.0 0.00 0.00 0.00 92 1018.7
20260831000327 21 223 0.0 0.0 0.00 0.00 0.00 91 1018.7
20260830235316 21 223 0.0 0.0 0.00 0.00 0.00 90 1018.5
20260830234358 21 223 0.0 0.0 0.00 0.00 0.00 89 1018.5
20260830233329 21 223 0.0 0.0 0.00 0.00 0.00 89 1018.5
20260830232321 21 223 0.0 0.0 0.00 0.00 0.00 88 1018.5
20260830231317 22 223 0.0 0.0 0.00 0.00 0.00 88 1018.4
20260830230337 22 223 0.0 0.0 0.00 0.00 0.00 88 1018.4
20260830225328 22 223 0.0 1.6 0.00 0.00 0.00 88 1018.6
20260830224324 22 223 0.0 0.0 0.00 0.00 0.00 87 1018.7
20260830223317 22 223 0.0 0.0 0.00 0.00 0.00 86 1018.4
20260830222337 22 223 0.0 0.0 0.00 0.00 0.00 85 1018.6
20260830221329 22 223 0.0 0.0 0.00 0.00 0.00 84 1018.6
20260830220325 23 223 0.0 0.0 0.00 0.00 0.00 83 1018.6
20260830215320 23 223 0.0 0.0 0.00 0.00 0.00 82 1018.5
20260830214346 23 223 0.0 1.6 0.00 0.00 0.00 81 1018.5
20260830213316 23 223 0.0 1.6 0.00 0.00 0.00 82 1018.5
20260830212337 23 223 0.0 1.6 0.00 0.00 0.00 80 1018.5
20260830211330 23 223 0.0 1.6 0.00 0.00 0.00 80 1018.6
20260830210350 23 224 0.0 1.6 0.00 0.00 0.00 79 1018.7
20260830205324 23 221 0.0 1.6 0.00 0.00 0.00 79 1018.7
20260830204315 23 300 0.0 1.6 0.00 0.00 0.00 79 1018.9
20260830203333 23 300 0.0 1.6 0.00 0.00 0.00 78 1018.9
20260830202328 23 20 0.0 1.6 0.00 0.00 0.00 77 1018.9
20260830201322 23 319 0.0 1.6 0.00 0.00 0.00 77 1019.0
20260830200318 23 333 0.0 1.6 0.00 0.00 0.00 77 1018.9
20260830195312 23 333 0.0 0.0 0.00 0.00 0.00 76 1019.0
20260830194323 23 333 0.0 0.0 0.00 0.00 0.00 76 1019.1
20260830193318 23 331 0.0 1.6 0.00 0.00 0.00 74 1019.3
20260830192336 23 336 0.0 0.0 0.00 0.00 0.00 73 1019.3
20260830191330 24 328 0.0 1.6 0.00 0.00 0.00 71 1019.5
20260830190325 24 290 0.0 1.6 0.00 0.00 0.00 69 1019.7
20260830185320 25 224 0.0 1.6 0.00 0.00 0.00 66 1019.9
20260830184342 26 293 0.0 1.6 0.00 0.00 0.00 65 1020.0
20260830183318 26 140 0.0 4.8 0.00 0.00 0.00 63 1020.2
20260830182327 26 313 1.6 4.8 0.00 0.00 0.00 62 1020.1
20260830181321 25 147 0.0 3.2 0.00 0.00 0.00 65 1020.2
20260830180315 26 332 0.0 3.2 0.00 0.00 0.00 65 1020.3
20260830175333 25 139 0.0 3.2 0.00 0.00 0.00 66 1020.2
20260830174332 26 31 0.0 3.2 0.00 0.00 0.00 67 1020.1
20260830173324 26 144 0.0 3.2 0.00 0.00 0.00 66 1020.4
20260830172319 25 147 0.0 4.8 0.00 0.00 0.00 67 1020.5
20260830170321 25 131 1.6 3.2 0.00 0.00 0.00 63 1020.6
20260830165315 25 125 0.0 1.6 0.00 0.00 0.00 64 1020.7
20260830164336 25 20 0.0 3.2 0.00 0.00 0.00 66 1020.7
20260830163329 25 359 0.0 3.2 0.00 0.00 0.00 65 1020.8
20260830162322 25 329 0.0 3.2 0.00 0.00 0.00 64 1021.0
20260830161329 24 137 0.0 3.2 0.00 0.00 0.00 66 1021.1
20260830160322 24 158 0.0 1.6 0.00 0.00 0.00 66 1021.2
20260830155318 24 61 0.0 1.6 0.00 0.00 0.00 68 1021.3
20260830154335 23 343 0.0 1.6 0.00 0.00 0.00 66 1021.3
20260830153353 23 272 0.0 3.2 0.00 0.00 0.00 66 1021.4
20260830152326 23 15 0.0 8.0 0.00 0.00 0.00 65 1021.4
20260830151318 23 131 0.0 1.6 0.00 0.00 0.00 67 1021.8
20260830150337 23 30 0.0 1.6 0.00 0.00 0.00 68 1021.8
20260830145331 22 332 0.0 3.2 0.00 0.00 0.00 71 1021.9
20260830144331 21 115 0.0 1.6 0.00 0.00 0.00 75 1021.9
20260830143323 21 71 0.0 0.0 0.00 0.00 0.00 81 1022.0
20260830142316 20 46 0.0 1.6 0.00 0.00 0.00 83 1022.0
20260830141337 20 344 0.0 1.6 0.00 0.00 0.00 82 1022.2
20260830140332 19 344 0.0 1.6 0.00 0.00 0.00 86 1022.2
20260830135322 18 344 0.0 1.6 0.00 0.00 0.00 87 1022.2
20260830134343 18 344 0.0 0.0 0.00 0.00 0.00 86 1022.2
20260830133312 17 344 0.0 0.0 0.00 0.00 0.00 88 1022.2
20260830132352 17 344 0.0 0.0 0.00 0.00 0.00 90 1022.3
20260830131323 17 344 0.0 0.0 0.00 0.00 0.00 90 1022.5
20260830130314 16 344 0.0 0.0 0.00 0.00 0.00 94 1022.6
20260830125324 16 344 0.0 0.0 0.00 0.00 0.00 96 1022.6
20260830124334 15 344 0.0 0.0 0.00 0.00 0.00 96 1022.6
20260830123330 15 344 0.0 0.0 0.00 0.00 0.00 97 1022.7
20260830122322 15 344 0.0 0.0 0.00 0.00 0.00 97 1022.9
20260830121317 15 344 0.0 0.0 0.00 0.00 0.00 97 1023.0
20260830120324 15 344 0.0 0.0 0.00 0.00 0.00 97 1023.0
20260830115319 14 344 0.0 0.0 0.00 0.00 0.00 97 1023.1
20260830114338 14 344 0.0 0.0 0.00 0.00 0.00 97 1022.9
20260830113347 14 344 0.0 0.0 0.00 0.00 0.00 97 1022.9
20260830112319 13 344 0.0 0.0 0.00 0.00 0.00 97 1022.9
20260830111312 13 344 0.0 0.0 0.00 0.00 0.00 97 1022.9
20260830110333 13 344 0.0 0.0 0.00 0.00 0.00 96 1022.9
20260830105330 13 344 0.0 0.0 0.00 0.00 0.00 96 1022.9
20260830104321 13 344 0.0 0.0 0.00 0.00 0.00 96 1022.7
20260830103313 13 344 0.0 0.0 0.00 0.00 0.00 96 1022.7
20260830102354 13 344 0.0 0.0 0.00 0.00 0.00 96 1022.7
20260830101328 13 344 0.0 0.0 0.00 0.00 0.00 96 1022.8
20260830100319 12 344 0.0 0.0 0.00 0.00 0.00 96 1022.7
20260830095314 13 344 0.0 0.0 0.00 0.00 0.00 96 1022.8
20260830094312 13 344 0.0 1.6 0.00 0.00 0.00 96 1022.8
20260830093332 12 344 0.0 0.0 0.00 0.00 0.00 96 1022.9
20260830092324 12 344 0.0 0.0 0.00 0.00 0.00 96 1022.9
20260830091316 12 344 0.0 0.0 0.00 0.00 0.00 96 1022.9
20260830090333 12 344 0.0 0.0 0.00 0.00 0.00 96 1023.1
20260830085331 12 344 0.0 0.0 0.00 0.00 0.00 96 1023.0
20260830084323 12 344 0.0 0.0 0.00 0.00 0.00 96 1022.9
20260830083317 12 344 0.0 0.0 0.00 0.00 0.00 96 1023.0
20260830082312 12 344 0.0 0.0 0.00 0.00 0.00 96 1023.1
20260830081331 12 344 0.0 0.0 0.00 0.00 0.00 96 1023.1
20260830080326 12 344 0.0 0.0 0.00 0.00 0.00 96 1023.1
20260830075323 12 344 0.0 0.0 0.00 0.00 0.00 96 1023.1
20260830074316 12 344 0.0 0.0 0.00 0.00 0.00 96 1023.1
20260830073334 12 344 0.0 0.0 0.00 0.00 0.00 96 1023.0
20260830072328 12 344 0.0 0.0 0.00 0.00 0.00 95 1022.9
20260830071323 12 344 0.0 0.0 0.00 0.00 0.00 95 1023.0
20260830070320 12 344 0.0 0.0 0.00 0.00 0.00 95 1023.1
20260830065311 12 344 0.0 0.0 0.00 0.00 0.00 95 1023.1
20260830064332 12 344 0.0 0.0 0.00 0.00 0.00 95 1023.2
20260830063327 12 344 0.0 0.0 0.00 0.00 0.00 95 1023.1
20260830062319 12 344 0.0 0.0 0.00 0.00 0.00 95 1023.1
20260830061313 12 344 0.0 0.0 0.00 0.00 0.00 95 1023.1
20260830060338 12 344 0.0 0.0 0.00 0.00 0.00 94 1022.9
20260830055357 12 344 0.0 0.0 0.00 0.00 0.00 95 1022.9
20260830054331 12 344 0.0 0.0 0.00 0.00 0.00 94 1022.7
20260830053328 12 344 0.0 0.0 0.00 0.00 0.00 94 1022.8
20260830052322 12 344 0.0 0.0 0.00 0.00 0.00 94 1022.9
20260830051316 12 344 0.0 0.0 0.00 0.00 0.00 94 1023.0
20260830050336 12 344 0.0 0.0 0.00 0.00 0.00 94 1023.0
20260830045328 12 344 0.0 0.0 0.00 0.00 0.00 94 1023.1
20260830044328 12 344 0.0 0.0 0.00 0.00 0.00 93 1023.1
20260830043337 13 344 0.0 0.0 0.00 0.00 0.00 94 1023.0
20260830042337 13 344 0.0 0.0 0.00 0.00 0.00 93 1023.1
20260830041349 13 344 0.0 0.0 0.00 0.00 0.00 93 1023.0
20260830040319 13 344 0.0 0.0 0.00 0.00 0.00 93 1023.0
20260830035341 13 344 0.0 0.0 0.00 0.00 0.00 93 1023.0
20260830034359 13 344 0.0 0.0 0.00 0.00 0.00 93 1022.9
20260830033330 13 344 0.0 0.0 0.00 0.00 0.00 92 1023.0
20260830032322 13 344 0.0 0.0 0.00 0.00 0.00 92 1023.0
20260830031318 13 344 0.0 0.0 0.00 0.00 0.00 92 1022.9